Weather History for Westminster, MD

Change the Weather History Date:

Thursday, May 2, 2013

  Actual Average (KTHV) Record (KTHV)
Temperature  
Mean Temperature 58 °F -  
Max Temperature 73 °F 71 °F 84 °F (2001)
Min Temperature 42 °F 47 °F 33 °F (1999)
Degree Days  
Heating Degree Days 8    
Growing Degree Days 8 (Base 50)    
Moisture  
Dew Point 41 °F    
Average Humidity 60    
Maximum Humidity 93    
Minimum Humidity 25    
Precipitation  
Precipitation 0.00 in - - ()
Sea Level Pressure  
Sea Level Pressure 30.40 in    
Wind  
Wind Speed 2 mph (ESE)    
Max Wind Speed 10 mph    
Max Gust Speed -    
Visibility 10 miles    
Events      
Averages and records for this station are not official NWS values.
T = Trace of Precipitation, MM = Missing Value Source: NWS Daily Summary

Daily Weather History Graph

Daily Weather History Graph

Search for Another Location

Airport:

Trip Planner

Search our weather history database for the weather conditions in past years. The results will help you decide how hot, cold, wet, or windy it might be!

Date:

Astronomy

May. 02, 2013 Rise Set
Actual Time 6:07 AM EDT 8:03 PM EDT
Civil Twilight 5:38 AM EDT 8:32 PM EDT
Nautical Twilight 5:02 AM EDT 9:08 PM EDT
Astronomical Twilight 4:24 AM EDT 9:46 PM EDT
Moon 1:51 AM EDT (5/2) 12:51 PM EDT (5/2)
Length of Visible Light 14h 54m
Length of Day
13h 55m
Waning Gibbous, 48% of the Moon is Illuminated
May 2
Waning Gibbous
May 9
New
May 18
First Quarter
May 25
Full
May 31
Last Quarter

Hourly Weather History & Observations

Time (EDT) Temp. Dew Point Humidity Pressure Visibility Wind Dir Wind Speed Gust Speed Precip Events Conditions
12:00 AM 53.6 °F 44.6 °F 72% 30.43 in 10.0 mi Calm Calm - N/A   Clear
12:20 AM 51.8 °F 46.4 °F 82% 30.43 in 10.0 mi Calm Calm - N/A   Clear
12:40 AM 51.8 °F 44.6 °F 76% 30.43 in 10.0 mi Calm Calm - N/A   Clear
1:00 AM 50.0 °F 44.6 °F 82% 30.43 in 10.0 mi Calm Calm - N/A   Clear
1:20 AM 50.0 °F 44.6 °F 82% 30.44 in 10.0 mi Calm Calm - N/A   Clear
1:40 AM 50.0 °F 44.6 °F 82% 30.43 in 10.0 mi Calm Calm - N/A   Clear
2:00 AM 48.2 °F 42.8 °F 82% 30.43 in 10.0 mi Calm Calm - N/A   Clear
2:20 AM 48.2 °F 44.6 °F 87% 30.42 in 10.0 mi Calm Calm - N/A   Clear
2:40 AM 46.4 °F 42.8 °F 87% 30.42 in 10.0 mi Calm Calm - N/A   Clear
3:00 AM 44.6 °F 42.8 °F 93% 30.42 in 10.0 mi Calm Calm - N/A   Clear
3:20 AM 44.6 °F 41.0 °F 87% 30.42 in 10.0 mi Calm Calm - N/A   Clear
3:40 AM 44.6 °F 41.0 °F 87% 30.42 in 10.0 mi Calm Calm - N/A   Clear
4:00 AM 44.6 °F 41.0 °F 87% 30.41 in 10.0 mi Calm Calm - N/A   Clear
4:20 AM 44.6 °F 41.0 °F 87% 30.42 in 10.0 mi Calm Calm - N/A   Clear
4:40 AM 42.8 °F 41.0 °F 93% 30.41 in 10.0 mi Calm Calm - N/A   Clear
5:00 AM 42.8 °F 41.0 °F 93% 30.41 in 10.0 mi Calm Calm - N/A   Clear
5:40 AM 42.8 °F 39.2 °F 87% 30.41 in 10.0 mi Calm Calm - N/A   Clear
6:00 AM 42.8 °F 39.2 °F 87% 30.42 in 10.0 mi Calm Calm - N/A   Clear
6:20 AM 42.8 °F 39.2 °F 87% 30.42 in 10.0 mi Calm Calm - N/A   Clear
6:40 AM 42.8 °F 39.2 °F 87% 30.42 in 10.0 mi Calm Calm - N/A   Clear
7:00 AM 44.6 °F 41.0 °F 87% 30.43 in 10.0 mi Calm Calm - N/A   Clear
7:20 AM 46.4 °F 42.8 °F 87% 30.44 in 10.0 mi Calm Calm - N/A   Clear
7:40 AM 46.4 °F 42.8 °F 87% 30.44 in 10.0 mi Calm Calm - N/A   Clear
8:00 AM 48.2 °F 44.6 °F 87% 30.44 in 10.0 mi Calm Calm - N/A   Clear
8:25 AM 50.0 °F 42.8 °F 76% 30.44 in 10.0 mi East 5.8 mph - N/A   Clear
8:45 AM 51.8 °F 44.6 °F 76% 30.45 in 10.0 mi East 6.9 mph - N/A   Clear
9:05 AM 51.8 °F 42.8 °F 71% 30.45 in 10.0 mi East 5.8 mph - N/A   Clear
9:25 AM 53.6 °F 42.8 °F 67% 30.45 in 10.0 mi ENE 6.9 mph - N/A   Clear
10:05 AM 55.4 °F 44.6 °F 67% 30.45 in 10.0 mi ESE 4.6 mph - N/A   Clear
10:25 AM 55.4 °F 42.8 °F 63% 30.45 in 10.0 mi ENE 4.6 mph - N/A   Clear
10:45 AM 57.2 °F 42.8 °F 59% 30.45 in 10.0 mi ESE 3.5 mph - N/A   Clear
11:05 AM 57.2 °F 42.8 °F 59% 30.45 in 10.0 mi Calm Calm - N/A   Clear
11:25 AM 59.0 °F 41.0 °F 51% 30.45 in 10.0 mi East 5.8 mph - N/A   Clear
11:45 AM 60.8 °F 41.0 °F 48% 30.44 in 10.0 mi East 3.5 mph - N/A   Clear
12:05 PM 62.6 °F 41.0 °F 45% 30.43 in 10.0 mi SE 5.8 mph - N/A   Clear
12:25 PM 64.4 °F 39.2 °F 40% 30.43 in 10.0 mi SE 5.8 mph - N/A   Clear
12:45 PM 64.4 °F 41.0 °F 42% 30.42 in 10.0 mi ESE 3.5 mph - N/A   Clear
1:05 PM 66.2 °F 39.2 °F 37% 30.42 in 10.0 mi ESE 4.6 mph - N/A   Clear
1:25 PM 66.2 °F 39.2 °F 37% 30.41 in 10.0 mi SE 6.9 mph - N/A   Clear
1:45 PM 66.2 °F 41.0 °F 40% 30.41 in 10.0 mi ENE 8.1 mph - N/A   Clear
2:05 PM 69.8 °F 41.0 °F 35% 30.40 in 10.0 mi East 9.2 mph - N/A   Clear
2:25 PM 69.8 °F 39.2 °F 33% 30.40 in 10.0 mi ESE 5.8 mph - N/A   Clear
2:45 PM 69.8 °F 39.2 °F 33% 30.40 in 10.0 mi East 6.9 mph - N/A   Clear
3:05 PM 69.8 °F 35.6 °F 28% 30.39 in 10.0 mi ESE 5.8 mph - N/A   Clear
3:25 PM 71.6 °F 35.6 °F 27% 30.39 in 10.0 mi SE 5.8 mph - N/A   Clear
3:45 PM 71.6 °F 35.6 °F 27% 30.38 in 10.0 mi SE 8.1 mph - N/A   Clear
4:05 PM 73.4 °F 35.6 °F 25% 30.38 in 10.0 mi SE 6.9 mph - N/A   Clear
4:25 PM 73.4 °F 35.6 °F 25% 30.37 in 10.0 mi SE 5.8 mph - N/A   Clear
5:05 PM 73.4 °F 35.6 °F 25% 30.36 in 10.0 mi ESE 5.8 mph - N/A   Clear
5:25 PM 71.6 °F 37.4 °F 29% 30.36 in 10.0 mi SE 8.1 mph - N/A   Clear
5:45 PM 71.6 °F 37.4 °F 29% 30.36 in 10.0 mi SE 8.1 mph - N/A   Clear
6:05 PM 71.6 °F 35.6 °F 27% 30.35 in 10.0 mi SE 6.9 mph - N/A   Clear
6:25 PM 71.6 °F 35.6 °F 27% 30.35 in 10.0 mi SE 8.1 mph - N/A   Clear
6:45 PM 69.8 °F 35.6 °F 28% 30.35 in 10.0 mi SE 9.2 mph - N/A   Clear
7:05 PM 69.8 °F 39.2 °F 33% 30.35 in 10.0 mi SE 10.4 mph - N/A   Clear
7:25 PM 68.0 °F 37.4 °F 33% 30.34 in 10.0 mi SE 4.6 mph - N/A   Clear
7:45 PM 66.2 °F 37.4 °F 35% 30.35 in 10.0 mi SE 3.5 mph - N/A   Clear
8:05 PM 64.4 °F 39.2 °F 40% 30.35 in 10.0 mi Calm Calm - N/A   Clear
8:25 PM 64.4 °F 39.2 °F 40% 30.34 in 10.0 mi Calm Calm - N/A   Clear
9:05 PM 60.8 °F 41.0 °F 48% 30.35 in 10.0 mi Calm Calm - N/A   Clear
9:25 PM 60.8 °F 42.8 °F 52% 30.35 in 10.0 mi Calm Calm - N/A   Clear
9:45 PM 57.2 °F 42.8 °F 59% 30.35 in 10.0 mi Calm Calm - N/A   Clear
10:05 PM 57.2 °F 42.8 °F 59% 30.34 in 10.0 mi Calm Calm - N/A   Clear
10:45 PM 55.4 °F 44.6 °F 67% 30.34 in 10.0 mi Calm Calm - N/A   Clear
11:05 PM 53.6 °F 42.8 °F 67% 30.34 in 10.0 mi Calm Calm - N/A   Clear
11:25 PM 53.6 °F 44.6 °F 72% 30.33 in 10.0 mi Calm Calm - N/A   Clear
11:45 PM 53.6 °F 44.6 °F 72% 30.33 in 10.0 mi Calm Calm - N/A   Clear